RH
7 7 7 7 7 8 7 6 6 6 5 5 5 5 5 5 6 6 7 7 7 7 7 8 7 8 7 7 7 7 7 7 8 9 9 7 6 7 8 11 14 15 15 15 14 14 17 22 28 34 37 37 37 36 36 42 48 54 60 63 67 69 70 72 75 75 77 83 83 81 78 71 72 69 60 62 67 65 64 63 59 51 47 44 45 52 57 57
6 7 7 7 6 7 7 7 6 6 5 5 5 5 5 5 6 6 7 7 7 7 7 8 8 7 7 7 7 7 8 9 9 8 7 6 5 6 7 9 13 15 14 15 14 12 14 21 27 32 35 36 37 36 37 42 49 59 66 66 68 70 72 73 76 77 78 81 83 84 79 71 76 71 59 65 70 66 66 64 56 50 48 46 47 54 58 59
6 6 6 7 6 6 6 7 7 6 5 5 5 5 5 5 6 6 6 7 7 7 7 7 7 7 7 7 7 8 10 11 11 9 7 6 6 6 6 8 11 14 15 14 14 14 15 20 27 31 34 35 35 35 37 43 52 61 66 69 70 69 72 75 78 81 80 79 80 84 80 73 76 72 61 65 69 66 66 63 55 51 51 49 50 53 57 60
6 5 6 7 6 6 6 6 6 6 6 5 5 5 6 6 6 6 6 7 7 7 7 7 7 7 7 7 9 10 11 14 13 9 7 7 7 7 6 7 10 13 14 14 15 16 16 21 28 30 31 32 31 33 37 43 51 59 64 69 69 68 73 76 79 84 83 79 79 81 81 78 76 72 63 62 67 68 66 63 56 51 50 50 50 51 54 58
6 6 6 6 6 6 6 6 6 6 6 5 5 5 6 6 6 6 6 7 7 8 8 8 8 7 8 8 11 10 12 17 15 10 10 8 8 8 8 7 9 12 14 15 16 16 16 22 26 26 28 30 34 37 39 42 47 57 65 66 65 69 75 77 79 84 84 82 82 81 81 81 77 71 62 60 67 72 67 63 56 50 51 50 49 50 52 57
5 5 6 6 6 6 6 6 5 6 6 6 5 5 6 6 6 7 7 8 8 9 8 8 8 8 8 8 10 10 14 18 15 13 13 11 10 9 10 9 9 10 12 15 17 17 19 25 27 26 27 30 38 41 40 44 49 58 66 65 64 69 75 78 78 82 84 86 86 82 81 81 78 71 63 62 69 74 70 64 58 54 56 52 49 50 52 55
5 5 5 5 6 6 6 6 6 6 6 6 5 5 5 6 7 7 7 8 9 9 9 9 8 8 8 9 11 12 14 16 15 16 15 13 12 10 10 10 9 10 12 15 17 19 23 27 27 27 29 30 35 40 43 50 56 62 68 66 66 70 75 77 78 82 85 89 87 82 82 83 79 73 66 65 68 73 73 68 63 59 56 54 50 51 52 53
5 5 5 5 5 5 5 6 6 6 6 6 6 5 5 6 7 7 7 8 9 9 9 9 8 8 9 10 13 13 12 14 14 14 14 13 12 11 11 10 11 11 12 15 17 21 23 26 26 25 29 30 31 39 48 56 60 64 68 66 66 71 76 76 76 80 83 88 89 84 85 85 80 76 71 68 68 73 76 73 69 61 54 53 51 52 53 52
5 4 4 5 5 5 5 5 6 6 5 5 6 6 5 6 7 7 8 8 9 9 9 9 9 9 9 10 12 12 11 13 13 12 12 11 11 11 11 10 11 12 14 14 17 21 21 24 23 23 29 29 32 44 55 63 64 63 67 67 69 73 74 73 72 76 82 87 89 88 88 85 79 79 77 72 71 76 78 76 73 64 55 53 53 54 55 54
7 5 4 4 5 5 5 5 5 6 5 5 6 6 6 5 6 7 8 8 9 9 9 10 10 9 9 10 11 12 12 13 12 12 11 10 10 10 9 10 10 11 13 15 19 21 21 22 22 24 29 28 38 54 60 64 64 64 69 70 71 73 71 72 73 77 83 86 88 91 89 85 80 82 82 76 76 80 79 79 78 69 61 55 53 57 57 57
11 8 6 5 5 5 5 5 5 5 6 6 5 6 6 6 6 7 8 8 8 9 9 10 10 9 10 11 12 12 12 13 11 10 11 10 10 8 8 9 9 10 13 17 21 20 20 22 21 24 25 30 46 58 60 61 63 66 69 70 71 71 69 72 75 80 85 86 86 89 88 85 84 85 85 80 79 82 80 81 80 75 70 60 55 59 61 60
12 11 9 6 5 5 5 5 5 5 5 6 6 6 6 6 6 6 7 8 8 9 9 9 10 10 11 11 12 12 12 12 11 10 12 11 10 8 8 9 9 9 13 18 20 20 20 20 21 23 23 32 48 55 58 59 62 65 66 71 73 71 72 74 77 81 86 88 85 85 87 87 87 87 84 81 82 83 82 82 80 77 77 68 59 62 63 63
13 13 12 10 7 5 5 5 5 5 6 6 7 6 6 6 6 6 7 8 8 8 9 9 10 10 12 12 11 10 10 11 11 10 11 11 10 10 8 8 8 9 12 17 20 20 19 19 19 21 21 31 45 53 57 56 60 67 68 72 73 70 71 74 77 81 84 87 84 83 88 88 88 85 82 83 83 84 83 83 81 78 78 73 66 66 66 66
13 14 14 14 11 7 6 6 6 6 6 7 7 6 6 7 7 7 6 7 8 8 8 9 9 11 12 12 11 10 10 10 10 10 11 12 11 10 10 9 9 11 13 17 20 20 19 18 17 19 22 31 45 53 57 57 62 69 69 71 72 68 68 71 76 79 81 86 85 84 87 89 86 83 82 84 84 85 83 82 81 78 80 78 73 72 71 70
12 14 15 16 15 11 8 8 8 7 7 7 7 7 6 7 7 7 7 7 7 7 7 8 9 12 13 12 12 12 11 11 11 11 11 12 11 10 10 10 10 11 13 16 19 18 19 17 16 21 25 33 46 53 56 59 62 65 65 69 71 68 70 71 72 75 79 85 85 84 86 87 85 83 82 84 84 84 82 82 80 77 80 80 76 77 75 74
13 14 15 16 16 14 11 9 9 8 8 7 7 7 7 7 7 7 7 7 7 7 7 8 10 12 13 14 15 14 13 13 12 11 11 12 11 10 10 10 9 9 11 15 16 17 18 16 16 23 28 37 49 54 56 59 60 59 59 65 68 68 72 71 70 71 74 82 83 80 84 86 83 81 80 80 80 81 80 79 78 74 77 77 76 79 77 76
14 14 15 15 16 15 12 9 9 9 8 8 8 8 7 7 7 7 8 9 9 9 9 9 11 12 14 15 16 15 14 13 12 12 12 12 12 11 11 9 9 8 9 13 14 15 16 15 18 22 26 36 47 52 54 55 57 56 54 59 62 65 69 68 70 71 69 76 80 80 81 82 81 79 77 78 77 79 77 76 76 74 74 74 72 75 76 77
14 14 14 14 15 15 13 10 9 9 9 9 10 9 9 9 9 9 11 11 10 10 11 13 13 14 15 15 15 15 13 12 12 13 12 12 12 11 11 10 9 8 8 10 11 13 14 16 19 22 24 32 43 48 47 46 50 52 52 55 57 59 63 65 67 70 69 71 76 79 79 79 79 78 76 75 75 76 74 73 74 73 73 71 70 70 71 74
15 15 14 14 14 16 15 11 9 9 9 10 11 10 11 11 10 11 12 11 11 11 12 14 13 14 15 15 14 14 13 12 13 13 12 12 12 11 11 11 9 8 7 8 10 11 14 16 19 22 25 32 40 42 39 38 42 46 47 50 52 53 57 61 64 68 70 70 72 75 77 77 76 77 77 74 72 71 69 70 71 71 71 70 69 68 69 71
17 15 14 14 14 15 16 13 11 10 10 12 13 12 12 12 12 13 13 12 12 11 11 12 12 12 14 14 14 14 13 13 13 14 13 12 12 12 12 11 9 8 7 8 9 9 12 16 19 23 27 31 34 34 35 35 36 40 42 45 50 52 53 55 59 64 67 69 71 72 73 74 73 74 77 75 73 71 66 66 67 67 67 68 68 69 71 72
19 17 16 15 14 15 16 14 12 11 12 13 14 14 15 15 15 16 15 14 12 12 11 10 10 11 12 13 13 13 12 12 13 14 13 12 12 12 12 11 9 9 9 9 9 9 11 14 20 25 27 28 28 29 31 31 31 34 38 43 47 50 51 52 55 57 59 64 68 71 72 73 72 73 75 74 75 73 68 65 64 62 62 64 67 70 71 72
21 20 18 16 15 15 16 15 13 12 13 14 15 16 18 18 18 18 19 17 14 13 12 10 10 10 11 12 12 12 13 13 13 14 13 12 13 13 11 11 11 11 11 10 10 11 11 12 18 24 24 25 25 25 26 27 29 30 33 38 39 44 48 48 52 53 53 58 64 68 70 71 71 72 72 73 73 72 68 66 63 60 60 61 62 65 67 68
23 22 20 18 16 15 16 16 14 14 14 16 16 16 18 19 19 19 19 19 15 13 12 10 10 9 10 11 11 12 14 14 13 14 13 12 12 13 12 13 14 13 13 12 12 12 12 12 15 17 20 23 23 22 22 22 26 28 31 33 32 39 42 39 47 52 50 54 59 62 67 70 70 69 70 70 69 68 66 67 64 60 59 59 58 60 63 64
23 23 22 21 18 16 17 16 14 14 16 17 18 17 18 18 19 18 18 18 16 14 12 11 10 9 9 10 12 13 15 15 14 14 13 12 13 13 13 15 15 15 14 14 15 14 14 13 13 15 18 20 20 19 18 19 21 24 29 30 29 35 39 37 45 52 51 54 56 58 62 65 67 67 69 70 68 66 65 66 66 63 61 61 60 59 59 61
24 23 23 22 20 18 18 17 15 16 18 19 18 18 18 17 17 17 17 18 17 15 13 11 11 10 9 11 14 15 15 15 15 13 13 12 13 14 14 15 15 16 16 16 16 16 15 14 14 16 17 18 20 18 17 17 19 19 24 27 24 27 37 44 47 50 53 57 57 54 56 60 63 64 68 70 69 68 66 65 65 65 65 64 63 61 59 60
24 25 24 23 22 20 18 19 18 18 19 19 18 18 17 17 17 16 17 20 20 17 15 12 12 11 11 13 15 16 16 16 15 13 13 13 13 13 14 15 15 16 17 17 17 17 16 15 15 16 16 17 18 17 17 16 17 20 22 24 23 27 38 46 46 47 53 57 55 52 53 57 58 57 61 67 70 69 67 66 65 64 64 63 62 61 61 62
25 25 25 25 24 21 19 20 20 19 19 19 18 18 16 16 17 16 17 21 20 17 15 13 12 12 13 15 17 17 18 17 14 14 14 13 13 13 14 16 15 15 17 17 18 18 16 15 16 16 16 17 17 17 17 16 18 21 23 24 26 30 37 44 44 47 52 53 53 55 54 53 54 52 56 63 68 70 68 67 65 64 63 62 62 62 63 63
25 25 26 26 24 22 20 21 22 20 20 20 18 16 16 16 17 17 17 18 18 16 14 14 15 15 16 17 18 18 17 15 14 15 14 14 14 14 14 15 15 15 16 16 17 18 17 17 17 16 17 19 19 20 18 16 17 21 25 30 32 33 37 41 42 47 52 49 52 57 53 53 56 52 53 61 65 68 68 65 64 63 61 61 62 62 61 61
26 25 26 26 25 23 22 22 22 21 21 20 19 17 16 16 16 17 18 17 17 17 16 16 16 16 17 19 18 18 16 15 15 15 15 15 14 14 14 15 15 15 15 15 17 18 18 17 17 16 17 18 19 20 17 15 17 21 28 33 31 31 35 39 44 49 50 47 50 54 52 53 56 52 51 58 62 64 64 63 62 61 59 60 61 60 58 57
26 26 26 26 26 24 24 24 22 21 22 21 20 18 16 17 19 19 18 18 18 17 17 17 16 18 19 20 19 19 17 16 16 16 16 16 15 14 15 15 15 15 15 16 17 18 17 16 17 16 16 16 18 17 14 15 20 24 30 31 29 32 36 43 51 49 47 48 49 49 50 51 51 50 51 55 60 61 62 63 63 61 59 58 58 58 57 56
25 26 26 27 26 25 25 24 23 22 22 21 20 18 16 19 24 23 19 18 18 18 18 17 18 18 19 20 20 19 19 18 17 16 16 16 15 15 15 15 15 16 17 17 16 17 15 15 16 15 15 15 16 15 14 16 21 25 29 29 30 39 45 48 52 48 47 51 48 45 49 50 49 49 49 52 57 59 60 62 63 62 61 58 57 56 56 55
24 25 27 27 26 26 26 25 24 22 22 22 20 19 19 20 22 21 18 17 19 19 19 19 19 20 19 20 20 20 20 19 17 16 17 17 17 16 15 16 15 15 18 18 16 16 16 15 16 15 15 15 14 15 15 15 19 24 27 27 32 45 51 51 52 51 49 49 44 44 49 51 50 46 45 48 51 55 58 58 60 60 58 56 56 55 55 55
24 25 27 28 27 27 27 26 24 23 23 23 20 21 23 22 21 22 19 17 18 19 19 19 20 21 20 20 21 21 21 20 18 17 17 17 18 18 16 16 16 14 17 18 17 18 19 19 18 16 15 15 14 16 16 16 18 23 25 25 33 45 50 51 51 47 45 45 44 47 50 51 48 43 45 47 47 50 53 54 55 55 54 54 54 54 54 54
25 26 27 27 27 27 28 27 26 25 24 23 22 22 23 22 23 24 22 19 18 19 20 21 21 21 21 21 22 22 21 21 19 17 18 18 19 19 18 18 17 15 17 19 19 20 22 23 21 18 17 16 15 16 18 18 19 22 24 22 28 36 38 42 44 40 41 48 50 49 49 51 48 43 45 47 46 48 50 52 53 52 53 54 54 54 53 53
26 27 27 27 26 27 27 26 26 26 24 23 25 25 25 24 24 23 22 21 20 20 21 21 21 21 21 21 21 21 21 21 19 18 19 19 20 21 20 18 17 17 17 19 21 22 22 24 22 19 17 16 16 17 18 19 19 21 22 20 22 25 27 33 37 37 42 51 56 51 49 52 48 43 45 47 48 51 51 53 54 53 54 55 55 55 53 52
27 27 28 27 26 28 28 26 25 25 24 25 25 25 25 25 24 22 22 21 20 21 22 22 22 20 20 21 21 20 20 21 20 19 19 20 21 22 21 19 17 17 17 20 24 23 22 23 22 20 18 17 16 17 18 18 19 20 20 19 20 22 27 33 38 42 43 46 53 53 53 54 48 42 46 49 51 54 55 56 56 56 56 56 56 56 54 54
28 28 29 27 27 28 29 27 25 25 26 26 26 27 27 25 22 23 24 21 20 21 22 23 22 20 19 20 20 20 20 21 21 20 21 21 22 21 21 19 18 18 17 19 24 24 22 22 22 21 20 18 17 17 19 18 18 19 19 20 21 22 26 31 39 48 47 46 53 56 56 57 51 45 47 49 52 54 57 59 58 57 58 58 58 56 55 54
29 30 30 29 29 30 30 29 27 27 28 26 29 33 31 26 23 23 23 21 21 22 23 24 24 21 20 20 20 20 20 21 21 21 22 22 22 22 21 19 18 19 18 18 22 24 22 22 24 23 21 20 19 19 20 20 19 19 20 21 22 24 26 28 36 45 44 49 57 57 56 55 50 48 47 47 49 51 54 57 57 56 57 57 56 55 54 53
30 31 30 30 31 31 30 30 29 30 28 27 32 32 28 27 26 23 22 22 22 23 24 25 23 22 21 20 20 20 20 21 21 21 21 21 21 22 21 20 19 19 19 19 20 23 23 22 24 24 22 20 20 20 21 21 21 21 21 21 23 28 30 29 34 39 43 52 56 52 53 51 44 46 47 46 48 50 52 54 54 55 55 54 54 52 51 51
32 32 31 31 31 31 31 31 31 31 30 31 34 31 26 26 24 21 21 22 22 23 25 25 24 22 22 21 21 20 20 21 21 20 20 21 21 21 21 21 19 19 20 19 19 22 23 22 24 25 23 22 22 22 21 22 22 22 22 22 23 27 28 27 31 35 42 53 57 51 51 45 41 45 47 47 48 48 50 51 52 53 53 53 53 49 47 46
36 36 34 31 31 32 32 33 33 33 35 36 36 34 30 27 24 23 23 23 24 24 24 25 25 24 23 22 22 21 21 21 21 21 20 19 21 20 20 20 19 19 20 19 19 20 22 23 23 25 23 22 22 23 22 22 23 23 23 23 24 25 27 29 33 35 38 47 52 51 47 42 42 46 46 47 49 49 48 49 51 54 53 54 51 46 43 43
38 39 36 33 33 33 33 36 37 36 38 38 35 33 32 30 28 28 26 25 25 25 25 26 26 25 24 23 23 22 21 22 21 21 21 20 20 20 19 19 18 19 19 20 19 19 21 23 23 24 24 23 23 23 24 24 24 24 24 24 27 26 27 31 34 35 37 41 44 44 41 40 43 47 47 48 50 51 51 50 52 55 56 53 50 45 43 41
38 38 36 35 36 34 34 39 40 39 39 38 34 33 32 31 31 29 27 26 27 27 27 26 26 26 25 24 23 22 22 22 22 22 21 21 20 19 19 19 19 18 19 19 20 21 21 21 21 24 26 27 26 24 26 26 25 25 25 26 26 26 27 31 33 35 37 40 42 40 38 38 41 47 49 47 48 51 53 51 50 53 53 49 46 43 41 40
36 35 34 35 37 37 38 41 42 42 43 40 37 36 35 33 32 31 29 28 29 29 28 27 27 27 26 25 24 23 23 23 23 22 21 21 20 19 20 21 21 21 19 20 22 21 20 23 24 23 25 27 26 24 26 26 24 24 26 27 27 28 28 28 32 36 36 38 39 38 40 40 40 45 47 47 49 51 52 51 49 49 49 46 44 42 39 38
33 33 33 34 36 38 40 42 43 44 45 43 41 41 40 38 36 34 32 31 31 31 30 30 29 28 28 28 26 25 24 24 24 23 22 22 20 20 22 22 23 24 22 24 25 20 20 25 24 22 24 26 25 24 25 26 23 22 24 25 27 28 28 27 32 34 34 37 38 37 39 40 39 42 46 47 50 51 51 51 49 48 48 47 45 42 38 37
34 35 35 35 37 39 42 45 45 47 47 45 45 44 42 43 41 38 37 35 33 33 33 32 32 32 31 31 29 28 27 26 26 25 24 24 23 23 23 23 24 24 25 27 27 23 24 26 23 22 23 22 23 24 26 27 24 22 23 23 25 28 28 29 32 32 33 37 38 39 40 37 34 40 45 47 49 51 52 51 50 49 49 48 45 41 40 40
38 40 40 41 41 42 46 48 49 51 51 48 46 45 43 44 45 42 41 39 36 36 35 34 35 36 35 35 33 32 31 30 28 27 27 27 27 27 25 24 25 24 24 26 24 24 26 23 23 24 22 20 22 26 28 26 22 21 23 23 26 30 30 29 29 31 34 35 36 41 43 36 33 38 42 45 47 48 50 50 50 49 48 47 45 42 43 43
40 41 42 45 47 48 51 52 52 53 52 49 50 48 45 45 46 46 46 43 40 38 37 37 38 38 38 37 37 36 36 35 33 31 32 32 32 31 28 26 26 26 25 26 25 26 26 23 23 24 21 21 22 24 26 25 22 22 23 23 26 30 29 29 30 33 34 32 32 39 42 36 33 36 39 42 43 42 44 46 47 47 46 46 46 45 44 45
43 44 45 46 48 49 51 51 52 53 52 53 55 53 48 46 47 48 48 47 45 43 40 40 41 41 40 41 41 42 41 40 38 38 37 36 35 34 31 30 28 27 27 28 28 28 26 25 26 24 20 21 22 22 24 24 22 23 24 24 26 29 29 29 33 35 34 32 34 37 38 35 33 35 37 39 39 39 40 42 43 45 45 46 46 46 45 46
47 48 48 49 49 50 51 52 52 52 52 54 57 55 50 49 50 50 50 49 50 49 45 45 45 44 43 44 45 45 44 43 43 43 42 41 39 38 36 34 32 31 30 30 30 29 26 28 31 26 20 21 24 23 23 23 22 23 24 25 26 26 27 28 32 34 32 32 37 38 35 33 34 37 38 38 38 39 39 40 41 42 43 44 45 45 45 46
48 50 51 52 53 51 51 52 52 54 55 55 57 57 54 53 52 52 53 53 51 52 51 50 49 46 46 48 48 46 45 45 46 46 45 44 43 41 39 37 34 33 33 31 31 32 30 30 33 30 23 23 24 23 23 23 23 22 23 25 25 25 26 27 30 32 31 33 38 38 33 32 35 39 40 38 39 39 39 41 42 43 43 43 43 45 46 45
47 52 54 55 55 53 52 53 53 56 58 57 57 58 58 57 54 54 58 57 54 55 56 54 52 50 51 51 51 49 48 48 48 47 46 46 45 44 42 40 37 35 35 34 33 34 34 33 33 31 27 26 27 26 25 24 24 25 25 25 24 25 26 26 27 30 30 32 35 33 30 32 37 39 40 40 41 39 39 40 41 42 44 44 43 44 45 45